Springfield, OH

2:44 AM EDT on September 22, 2017 (GMT -0400)
Springfield-Beckley Municipal

Weather History for KSGH - May, 2013

Change the Weather History Date:

Thursday, May 9, 2013

  Actual Average (KFFO) Record (KFFO)
Temperature  
Mean Temperature 62 °F -  
Max Temperature 77 °F 70 °F 86 °F (2004)
Min Temperature 48 °F 49 °F 44 °F (1997)
Degree Days  
Heating Degree Days 2    
Growing Degree Days 12 (Base 50)    
Moisture  
Dew Point 52 °F    
Average Humidity 83    
Maximum Humidity 100    
Minimum Humidity 35    
Precipitation  
Precipitation 0.09 in - - ()
Sea Level Pressure  
Sea Level Pressure 30.00 in    
Wind  
Wind Speed 3 mph (SSW)    
Max Wind Speed 13 mph    
Max Gust Speed 16 mph    
Visibility 4 miles    
Events Fog , Rain    
Averages and records for this station are not official NWS values.
T = Trace of Precipitation, MM = Missing Value Source: NWS Daily Summary

Daily Weather History Graph

Daily Weather History Graph

Search for Another Location

Airport or City:

Trip Planner

Search our weather history database for the weather conditions in past years. The results will help you decide how hot, cold, wet, or windy it might be!

Date:

Astronomy

May. 09, 2013 Rise Set
Actual Time 6:26 AM EDT 8:37 PM EDT
Civil Twilight 5:56 AM EDT 9:08 PM EDT
Nautical Twilight 5:19 AM EDT 9:45 PM EDT
Astronomical Twilight 4:39 AM EDT 10:25 PM EDT
Moon 6:10 AM EDT (5/9) 8:32 PM EDT (5/9)
Length of Visible Light 15h 11m
Length of Day
14h 11m
Waning Crescent, 0% of the Moon is Illuminated
May 9
Waning Crescent
May 9
New
May 18
First Quarter
May 25
Full
May 31
Last Quarter

Hourly Weather History & Observations

Time (EDT) Temp. Dew Point Humidity Pressure Visibility Wind Dir Wind Speed Gust Speed Precip Events Conditions
12:56 AM 56.8 °F 54.9 °F 93% 30.00 in 10.0 mi Calm Calm - N/A   Clear
1:56 AM 54.9 °F 54.9 °F 100% 29.99 in 6.0 mi SSW 4.6 mph - N/A   Mostly Cloudy
2:56 AM 54.0 °F 52.9 °F 96% 29.98 in 7.0 mi WSW 5.8 mph - N/A   Clear
3:56 AM 52.9 °F 52.9 °F 100% 29.98 in 3.0 mi Calm Calm - N/A   Clear
4:17 AM 51.8 °F 51.8 °F 100% 29.99 in 1.5 mi Calm Calm - N/A   Clear
4:19 AM 51.8 °F 51.8 °F 100% 29.99 in 0.8 mi Calm Calm - N/A   Clear
4:22 AM 51.8 °F 51.8 °F 100% 29.99 in 0.2 mi ESE 3.5 mph - N/A Fog Fog
4:32 AM 48.2 °F 48.2 °F 100% 29.99 in 0.8 mi Calm Calm - N/A   Clear
4:35 AM 48.2 °F 48.2 °F 100% 29.99 in 1.2 mi ESE 3.5 mph - N/A   Clear
4:44 AM 50.0 °F 50.0 °F 100% 29.99 in 0.8 mi Calm Calm - N/A   Clear
4:56 AM 52.0 °F 52.0 °F 100% 29.98 in 2.0 mi Calm Calm - N/A   Clear
5:17 AM 51.8 °F 51.8 °F 100% 29.99 in 1.8 mi Calm Calm - N/A   Clear
5:22 AM 48.2 °F 48.2 °F 100% 29.99 in 0.8 mi Calm Calm - N/A   Clear
5:25 AM 48.2 °F 48.2 °F 100% 29.99 in 0.2 mi Calm Calm - N/A Fog Fog
5:56 AM 48.9 °F 48.9 °F 100% 29.99 in 1.2 mi SSW 4.6 mph - N/A   Clear
6:07 AM 48.2 °F 48.2 °F 100% 30.00 in 0.8 mi ESE 3.5 mph - N/A   Clear
6:11 AM 48.2 °F 48.2 °F 100% 30.00 in 0.2 mi ESE 3.5 mph - N/A Fog Fog
6:40 AM 48.2 °F 48.2 °F 100% 30.02 in 0.2 mi SSW 3.5 mph - N/A Fog Fog
6:48 AM 48.2 °F 48.2 °F 100% 30.02 in 0.5 mi SW 3.5 mph - N/A Fog Fog
6:56 AM 48.9 °F 48.9 °F 100% 30.02 in 0.2 mi SW 4.6 mph - N/A Fog Fog
7:05 AM 50.0 °F 50.0 °F 100% 30.03 in 0.8 mi SSW 3.5 mph - N/A   Clear
7:13 AM 51.8 °F 51.8 °F 100% 30.03 in 1.0 mi SSW 3.5 mph - N/A   Clear
7:19 AM 51.8 °F 51.8 °F 100% 30.03 in 1.5 mi SW 3.5 mph - N/A   Clear
7:32 AM 53.6 °F 53.6 °F 100% 30.04 in 3.0 mi SW 3.5 mph - N/A   Clear
7:56 AM 54.9 °F 54.9 °F 100% 30.02 in 5.0 mi SW 5.8 mph - N/A   Clear
8:56 AM 61.9 °F 55.9 °F 81% 30.03 in 9.0 mi WSW 4.6 mph - N/A   Clear
9:56 AM 65.8 °F 54.9 °F 68% 30.03 in 9.0 mi West 8.1 mph - N/A   Clear
10:56 AM 68.0 °F 55.9 °F 65% 30.03 in 9.0 mi WSW 5.8 mph - N/A   Clear
11:56 AM 70.9 °F 56.8 °F 61% 30.04 in 8.0 mi WSW 6.9 mph - N/A   Clear
12:56 PM 73.9 °F 54.9 °F 51% 30.04 in 8.0 mi Variable 5.8 mph - N/A   Partly Cloudy
1:56 PM 74.8 °F 52.9 °F 46% 30.02 in 8.0 mi Variable 3.5 mph - N/A   Clear
2:56 PM 77.9 °F 50.9 °F 39% 30.01 in 9.0 mi West 9.2 mph - 0.00 in   Partly Cloudy
3:56 PM 77.9 °F 47.8 °F 35% 29.99 in 9.0 mi WSW 11.5 mph - N/A   Clear
4:56 PM 74.8 °F 46.9 °F 37% 29.98 in 9.0 mi SW 6.9 mph - N/A   Partly Cloudy
5:56 PM 75.9 °F 50.9 °F 41% 29.97 in 9.0 mi SSW 6.9 mph - N/A   Clear
6:56 PM 73.9 °F 52.9 °F 48% 29.98 in 8.0 mi SSW 5.8 mph - N/A   Clear
7:56 PM 72.0 °F 52.0 °F 49% 29.97 in 8.0 mi South 4.6 mph - N/A   Clear
8:35 PM 68.0 °F 55.4 °F 64% 29.99 in 2.5 mi South 11.5 mph 16.1 mph 0.06 in Rain Heavy Rain
8:43 PM 64.4 °F 57.2 °F 77% 29.98 in 1.8 mi SE 8.1 mph - 0.09 in Rain Light Rain
8:46 PM 64.4 °F 57.2 °F 77% 29.98 in 3.0 mi ESE 6.9 mph - 0.09 in Rain Light Rain
8:56 PM 64.9 °F 54.9 °F 70% 29.99 in 9.0 mi WNW 12.7 mph - 0.09 in   Mostly Cloudy
9:56 PM 61.9 °F 56.8 °F 84% 29.99 in 9.0 mi North 3.5 mph - 0.00 in   Mostly Cloudy
10:56 PM 61.9 °F 55.9 °F 81% 29.99 in 7.0 mi Calm Calm - 0.00 in   Partly Cloudy
11:56 PM 59.9 °F 56.8 °F 90% 29.97 in 9.0 mi SE 5.8 mph - N/A   Clear